FW2611 Weather Reports


Display with metric or nautical units.
time (UTC)temp
F
wind
direction
speed
MPH
gust
MPH
rain 1hr
in
rain 24hr
in
rain mn
in
humidity
%
barometer
mb
20260905124510 74 5 8.0 15.0 0.00 0.06 0.06 73 1011.3
20260905123014 73 9 10.0 16.0 0.00 0.06 0.06 71 1011.4
20260905121520 73 5 7.0 16.0 0.00 0.06 0.06 72 1011.5
20260905120034 73 20 8.0 16.0 0.00 0.06 0.06 73 1011.2
20260905114515 72 352 9.0 14.0 0.00 0.06 0.06 75 1011.2
20260905113012 72 347 5.0 11.0 0.00 0.06 0.06 78 1011.3
20260905111521 72 343 6.0 12.0 0.00 0.06 0.06 79 1011.1
20260905110025 72 347 7.0 14.0 0.00 0.06 0.06 80 1010.9
20260905104530 72 10 7.0 11.0 0.00 0.06 0.06 81 1010.7
20260905103013 72 12 7.0 10.0 0.00 0.06 0.06 81 1010.4
20260905101518 72 360 4.0 10.0 0.00 0.06 0.06 82 1010.3
20260905100026 72 28 5.0 14.0 0.00 0.06 0.06 81 1010.3
20260905094552 72 323 6.0 11.0 0.00 0.06 0.06 83 1010.3
20260905093031 72 348 3.0 6.0 0.00 0.06 0.06 84 1010.2
20260905091514 72 322 2.0 6.0 0.00 0.06 0.06 86 1010.2
20260905091008 73 329 2.0 5.0 0.00 0.06 0.06 87 1010.4
20260905090958 73 9 0.0 0.0 0.00 0.06 0.06 88 1010.3
20260905083029 72 46 0.0 0.0 0.00 0.06 0.06 89 1010.2
20260905081530 72 46 0.0 0.0 0.00 0.06 0.06 88 1010.2
20260905080016 72 46 0.0 0.0 0.00 0.06 0.06 87 1010.2
20260905074523 73 47 0.0 0.0 0.00 0.06 0.06 87 1010.2
20260905073026 73 40 3.0 10.0 0.01 0.18 0.06 89 1010.3
20260905071534 73 16 7.0 11.0 0.06 0.50 0.06 89 1010.4
20260905070031 74 360 4.0 7.0 0.06 0.50 0.06 89 1010.5
20260905064518 74 304 1.0 4.0 0.06 0.50 0.06 89 1011.0
20260905063024 74 332 3.0 9.0 0.05 0.49 0.05 88 1011.3
20260905061535 75 308 5.0 11.0 0.00 0.44 0.00 87 1011.4
20260905060051 75 348 3.0 10.0 0.00 0.47 0.00 87 1011.4
20260905054540 75 311 5.0 13.0 0.00 0.47 0.00 86 1011.4
20260905053020 75 292 7.0 13.0 0.00 0.47 0.00 85 1011.6
20260905051535 76 306 6.0 14.0 0.00 0.47 0.00 85 1011.7
20260905050007 77 323 10.0 16.0 0.00 0.47 0.00 83 1011.8
20260905044516 79 257 4.0 13.0 0.00 0.47 0.00 81 1011.5
20260905043019 79 290 2.0 6.0 0.00 0.47 0.00 80 1011.3
20260905041527 80 295 2.0 5.0 0.00 0.47 0.00 79 1011.4
20260905040026 80 292 2.0 6.0 0.00 0.47 0.00 78 1011.5
20260905034513 80 266 1.0 6.0 0.00 0.47 0.47 77 1011.6
20260905033014 80 269 0.0 4.0 0.00 0.47 0.47 77 1011.7
20260905031533 80 280 2.0 5.0 0.00 0.47 0.47 77 1011.9
20260905030026 80 261 3.0 7.0 0.00 0.47 0.47 76 1011.9
20260905024552 80 295 3.0 6.0 0.00 0.47 0.47 75 1011.8
20260905023017 80 271 1.0 7.0 0.00 0.47 0.47 74 1011.7
20260905021518 80 244 1.0 4.0 0.00 0.47 0.47 74 1011.7
20260905020023 80 261 1.0 6.0 0.00 0.47 0.47 74 1011.7
20260905014527 80 260 2.0 6.0 0.00 0.47 0.47 75 1011.9
20260905013040 81 275 1.0 6.0 0.00 0.47 0.47 75 1011.8
20260905011515 81 304 3.0 7.0 0.00 0.47 0.47 74 1011.7
20260905010019 81 281 4.0 8.0 0.00 0.47 0.47 74 1011.8
20260905004529 81 284 1.0 6.0 0.00 0.47 0.47 73 1011.7
20260905003029 82 275 2.0 7.0 0.00 0.47 0.47 72 1011.5
20260905001531 82 321 4.0 8.0 0.00 0.47 0.47 72 1011.3
20260905000016 82 308 3.0 7.0 0.00 0.47 0.47 70 1011.2
20260904234528 83 282 2.0 9.0 0.00 0.47 0.47 69 1011.1
20260904233028 83 261 5.0 9.0 0.00 0.47 0.47 68 1011.5
20260904231532 84 253 4.0 10.0 0.00 0.47 0.47 67 1011.3
20260904230043 84 254 5.0 10.0 0.00 0.47 0.47 66 1011.5
20260904224520 85 282 2.0 9.0 0.00 0.47 0.47 66 1011.5
20260904223026 85 286 4.0 11.0 0.00 0.47 0.47 64 1011.5
20260904221532 86 315 5.0 11.0 0.00 0.47 0.47 62 1011.5
20260904220008 87 320 5.0 14.0 0.00 0.47 0.47 58 1011.4
20260904214512 89 258 5.0 12.0 0.00 0.47 0.47 56 1011.4
20260904213011 90 327 6.0 12.0 0.00 0.47 0.47 55 1011.5
20260904211502 89 285 8.0 12.0 0.00 0.47 0.47 54 1011.5
20260904210006 90 297 6.0 12.0 0.00 0.47 0.47 54 1011.5
20260904204510 90 336 5.0 12.0 0.00 0.47 0.47 53 1011.5
20260904203016 90 287 7.0 11.0 0.00 0.47 0.47 52 1011.4
20260904201524 92 296 8.0 13.0 0.00 0.47 0.47 51 1011.5
20260904200038 92 324 5.0 10.0 0.00 0.47 0.47 51 1011.8
20260904194509 91 290 6.0 13.0 0.00 0.47 0.47 52 1011.9
20260904193014 92 316 3.0 12.0 0.00 0.47 0.47 51 1012.2
20260904191522 94 297 4.0 11.0 0.00 0.47 0.47 49 1012.3
20260904190024 94 221 2.0 9.0 0.00 0.47 0.47 54 1012.5
20260904184516 92 190 4.0 10.0 0.00 0.47 0.47 58 1012.5
20260904183008 90 253 4.0 10.0 0.00 0.47 0.47 54 1012.7
20260904181518 91 284 6.0 9.0 0.00 0.47 0.47 53 1012.8
20260904180023 90 282 6.0 10.0 0.00 0.47 0.47 54 1012.7
20260904174520 90 313 6.0 10.0 0.00 0.47 0.47 55 1012.8
20260904173023 89 292 3.0 9.0 0.00 0.47 0.47 56 1012.9
20260904171521 90 259 2.0 8.0 0.00 0.47 0.47 56 1012.8
20260904170019 89 350 3.0 11.0 0.00 0.47 0.47 57 1012.8
20260904164524 88 296 5.0 11.0 0.00 0.47 0.47 58 1012.6
20260904163014 87 290 4.0 12.0 0.00 0.47 0.47 61 1012.8
20260904161557 87 9 5.0 12.0 0.00 0.47 0.47 61 1012.8
20260904160016 86 344 5.0 13.0 0.00 0.47 0.47 62 1013.0
20260904154526 86 340 5.0 15.0 0.00 0.47 0.47 63 1013.2
20260904153034 85 338 6.0 14.0 0.00 0.47 0.47 64 1013.1
20260904151521 84 14 4.0 15.0 0.00 0.47 0.47 66 1013.2
20260904150014 83 337 6.0 14.0 0.00 0.47 0.47 67 1013.2
20260904144516 82 9 8.0 18.0 0.00 0.47 0.47 68 1013.0
20260904143024 82 332 6.0 13.0 0.00 0.47 0.47 70 1012.9
20260904141527 81 313 8.0 16.0 0.00 0.47 0.47 72 1012.9
20260904140010 80 344 8.0 13.0 0.00 0.47 0.47 75 1012.9
20260904134514 79 322 3.0 12.0 0.00 0.47 0.47 77 1012.9
20260904133019 79 308 8.0 16.0 0.00 0.47 0.47 78 1012.8
20260904131528 78 331 8.0 16.0 0.00 0.47 0.47 80 1013.1
20260904130027 77 301 7.0 14.0 0.00 0.47 0.47 82 1012.7